This is the latest recevied weather packets stored in our database for station/object KI5NYZ. If no packets are shown the sender has not sent any weather packets the latest 10 day(s).
| Time | Temp. | Humidity | Pressure | Rain* | Wind** | Luminosity | Snow |
|---|---|---|---|---|---|---|---|
| 1777683322 | 13.33° C | 46% | 1018.7 hPa | 0 mm | - | 11 W/m² | - |
| 1777681520 | 13.89° C | 49% | 1018.5 hPa | 0 mm | - | 30 W/m² | - |
| 1777679739 | 13.33° C | 58% | 1018.2 hPa | 0 mm | - | 50 W/m² | - |
| 1777678520 | 13.33° C | 62% | 1018.1 hPa | 0 mm | - | 60 W/m² | - |
| 1777676722 | 12.78° C | 68% | 1017.7 hPa | 0.25 mm | - | 64 W/m² | - |
| 1777676122 | 12.22° C | 70% | 1017.6 hPa | 0.25 mm | - | 90 W/m² | - |
| 1777672521 | 12.78° C | 77% | 1016.8 hPa | 0 mm | - | 121 W/m² | - |
| 1777671327 | 12.78° C | 74% | 1016.9 hPa | 0 mm | - | 127 W/m² | - |
| 1777667721 | 12.78° C | 70% | 1017.3 hPa | 0 mm | - | 234 W/m² | - |
| 1777665362 | 12.22° C | 72% | 1017.5 hPa | 0.25 mm | - | 229 W/m² | - |
| 1777660519 | 11.67° C | 74% | 1018 hPa | 0.76 mm | - | 169 W/m² | - |
| 1777657520 | 11.11° C | 77% | 1018.5 hPa | 0.25 mm | - | 246 W/m² | - |
| 1777656920 | 10.56° C | 78% | 1018.4 hPa | 0.25 mm | - | 211 W/m² | - |
| 1777656340 | 10.56° C | 81% | 1018.7 hPa | 0.25 mm | - | 180 W/m² | - |
| 1777655720 | 10.56° C | 79% | 1018.8 hPa | 0.25 mm | - | 167 W/m² | - |
| 1777654520 | 10° C | 79% | 1018.9 hPa | 0.25 mm | - | 146 W/m² | - |
| 1777646741 | 8.89° C | 92% | 1017.6 hPa | 1.27 mm | - | 25 W/m² | - |
| 1777644921 | 10° C | 96% | 1015.6 hPa | 1.52 mm | - | 17 W/m² | - |
| 1777633520 | 10.56° C | 96% | 1014.7 hPa | 0.25 mm | - | 0 W/m² | - |
| 1777624519 | 11.67° C | 87% | 1015 hPa | 0 mm | - | 0 W/m² | - |
| 1777622721 | 11.67° C | 88% | 1015 hPa | 0 mm | - | 0 W/m² | - |
| 1777620923 | 11.67° C | 88% | 1015.1 hPa | 0 mm | - | 0 W/m² | - |
| 1777616721 | 12.22° C | 89% | 1016.2 hPa | 0 mm | - | 0 W/m² | - |
| 1777615541 | 12.22° C | 90% | 1016.1 hPa | 0 mm | - | 0 W/m² | - |
| 1777612519 | 12.22° C | 90% | 1015.3 hPa | 0 mm | - | 0 W/m² | - |
* Rain latest hour (hover to see other rain measurements)
** Current wind speed in m/s (hover to see current wind gust speed)